Torna al catalogo

BSAT-3C

AttivoComunicazioniGEO
NORAD 37776·PAYLOAD·🇯🇵 Japan

Lanciato Aug 6, 2011 da Guiana Space Centre

Loading…

TLE

AggiornatoSource: Space-Track

Epoca: Sep 14, 2026, 14:19 UTC

1 37776U 11041B   26257.59694110 -.00000358  00000-0  00000-0 0  9991
2 37776   0.0457 338.1034 0000070 236.1679 104.1551  1.00272453 51367

Traccia BSAT-3C in tempo reale con AllMySat

Download on the App Store